Regional Weather Roundup
Issued by NWS

Home | Current Version | Previous Version | Text Only | Print | Product List | Glossary On
Versions: 1 2 3 4 5 6 7 8 9 10 11 12 13 14 15 16 17 18 19 20 21 22 23 24 25 26 27 28 29 30 31 32 33 34 35 36 37 38 39 40 41 42 43 44 45 46 47 48 49 50
000
ASUS43 KMKX 150210
RWRWI

WISCONSIN REGIONAL WEATHER ROUNDUP
NATIONAL WEATHER SERVICE MILWAUKEE/SULLIVAN WI
800 PM CST FRI DEC 14 2018

NOTE: "FAIR" INDICATES FEW OR NO CLOUDS BELOW 12,000 FEET WITH NO
SIGNIFICANT WEATHER AND/OR OBSTRUCTIONS TO VISIBILITY.

WIZ001-002-006>008-014>016-023>028-150300-
NORTHWEST WISCONSIN

CITY           SKY/WX    TMP DP  RH WIND       PRES   REMARKS
SUPERIOR ARPT  FAIR      30  25  83 SW7       30.16F WCI  23
ASHLAND        FAIR      32  24  72 SW9       30.16S WCI  24
HAYWARD        FAIR      23  20  88 CALM      30.18S
SIREN          FAIR      24  22  92 CALM      30.19S
CUMBERLAND     FAIR      25  21  86 CALM      30.19R
RICE LAKE      FAIR      24  23  98 CALM      30.20R
CHETEK         FAIR      20  19  96 SW3       30.20R
LADYSMITH      FAIR      20  19  95 CALM      30.20S
EAU CLAIRE     FAIR      22  20  92 CALM      30.21R
MENOMONIE      FAIR      16  13  88 CALM      30.22R
NEW RICHMOND   FAIR      24  22  89 S3        30.20R
OSCEOLA        FAIR      23  21  93 CALM      30.23R
$$

WIZ003>005-009-010-017-018-150300-
NORTH CENTRAL WISCONSIN

CITY           SKY/WX    TMP DP  RH WIND       PRES   REMARKS
MANITOWISH WTR FAIR      23  23 100 CALM      30.14S
ARBOR VITAE    FAIR      29  25  83 W3        30.15R
WOODRUFF       FAIR      29  25  83 W3        30.15R
RHINELANDER    FAIR      27  18  69 W7        30.16R WCI  19
EAGLE RIVER    FAIR      27  21  77 W3        30.13R
LAND O LAKES   FAIR      29  23  77 CALM      30.14S
PHILLIPS       FAIR      17  17  98 CALM      30.16S
TOMAHAWK       FAIR      21  18  89 CALM      30.18R
MEDFORD        FAIR      20  19  93 S3        30.19R
MERRILL        FAIR      24  21  90 CALM      30.20R
$$

WIZ029-030-035-036-043>047-150300-
CENTRAL WISCONSIN

CITY           SKY/WX    TMP DP  RH WIND       PRES   REMARKS
WAUSAU         FAIR      24  20  84 CALM      30.19R
MOSINEE        CLEAR     27  21  80 SW3       30.21R
MARSHFIELD     FAIR      22  18  85 SW3       30.20R
STEVENS POINT  FAIR      20  20 100 CALM      30.22S FOG
WAUPACA        FAIR      26  21  82 S3        30.23R
WAUTOMA        FAIR      21  19  92 N3        30.23S
WISC RAPIDS    HAZE      22  17  81 CALM      30.23S VSB 3/4
CAMP DOUGLAS   FAIR      20  20  99 CALM      30.21S
$$

WIZ011>013-019>022-031-037>040-048>050-150300-
NORTHEAST WISCONSIN

CITY           SKY/WX    TMP DP  RH WIND       PRES   REMARKS
ANTIGO         FAIR      25  20  83 CALM      30.18S
SHAWANO        FAIR      32  23  70 CALM      30.20S
OCONTO         FAIR      31  22  70 W6        30.19R WCI  25
STURGEON BAY   FAIR      34  23  64 W14       30.18R WCI  25
GREEN BAY      FAIR      30  25  81 CALM      30.21R
MANITOWOC      FAIR      34  25  69 W9        30.20S WCI  27
APPLETON       PTCLDY    28  21  74 W7        30.20S WCI  21
CLINTONVILLE   FAIR      27  21  79 CALM      30.21S
OSHKOSH        FAIR      31  23  72 W5        30.21S WCI  26
$$

WIZ032>034-041-042-053>061-150300-
SOUTHWEST WISCONSIN

CITY           SKY/WX    TMP DP  RH WIND       PRES   REMARKS
LA CROSSE      FAIR      29  23  78 S8        30.23S WCI  21
SPARTA         FAIR      20  19  95 CALM      30.24R
VIROQUA          N/A     30  23  75 SW6       30.21F WCI  24
BOSCOBEL       FAIR      24  21  88 CALM      30.25F FOG
PRAIRIE DU CHI FAIR      27  22  82 CALM      30.25F
PLATTEVILLE    FAIR      32  26  77 NW8       30.22F WCI  25
$$

WIZ056-057-062-063-064-067-068-150300-
SOUTH CENTRAL WISCONSIN

CITY           SKY/WX    TMP DP  RH WIND       PRES   REMARKS
REEDSBURG      FAIR      25  22  88 CALM      30.22F
BARABOO/DELLS  FAIR      31  21  66 W3        30.21F
LONE ROCK      FAIR      27  24  89 CALM      30.24F
MINERAL POINT  FAIR      32  28  86 NW5       30.21F WCI  27
MADISON        FAIR      26  23  88 CALM      30.22F
MIDDLETON      FAIR      29  24  82 CALM      30.22F
WATERTOWN      FAIR      22  22 100 CALM      30.21F FOG
MONROE         FAIR      34  26  70 MISG      30.21S
JANESVILLE     FOG       27  27 100 CALM      30.23S VSB 1/8
$$

WIZ051-052-058>065-066-070>072-150300-
SOUTHEAST WISCONSIN

CITY           SKY/WX    TMP DP  RH WIND       PRES   REMARKS
MILWAUKEE      FAIR      31  25  78 W3        30.22S
WAUKESHA       CLEAR     27  27 100 CALM      30.22S FOG
MILWAUKEE/TIMM CLEAR     28  25  86 SW3       30.22S
RACINE         FAIR      28  26  92 CALM      30.24S FOG
KENOSHA        FOG       27  27 100 W5        30.22S VSB 1/4 WCI  22
FOND DU LAC    FAIR      27  25  92 CALM      30.21F
SHEBOYGAN      FAIR      34  23  64 W10       30.19F WCI  26
WEST BEND      FAIR      30  27  86 W5        30.20S WCI  25
JUNEAU         FAIR      30  28  91 CALM      30.22F
$$

LSZ147-162-150300-
LAKE SUPERIOR

STATION/POSITION TIME  TEMP    WIND        PRES    WAVE
                       AIR SEA DIR/SP/G            HT/PER
                 (UTC) (F)     (DEG/KT/KT) (MB)    (FT/S)
DEVILS ISLAND    0100   38     240/ 12/ 14 1021.3R
SAXON HARBOR     0140   33     100/  2/  6 1020.7S
$$

LMZ867-665-643>646-150300-
LAKE MICHIGAN

STATION/POSITION TIME  TEMP    WIND        PRES    WAVE
                       AIR SEA DIR/SP/G            HT/PER
                 (UTC) (F)     (DEG/KT/KT) (MB)    (FT/S)
NORTHPORT PIER   0140   37     230/  4/  8 1020.7R
KEWAUNEE LAKESHO 0148          290/ 10/ 15 1021.1R
SHEBOYGAN LAKESH 0200   36     280/ 10/ 12 1022.9F
PORT WASHINGTON  0140   36     300/  8/ 11 1023.4F
MILWAUKEE LAKESH 0150   34     280/  1/  2   N/A
KENOSHA   LAKESH 0100   30     250/  3/  6 1023.7
$$

TC  - TEMPERATURE IN CELSIUS
VSB - VISIBILITY IN STATUTE MILES
WCI - WIND CHILL INDEX
HX  - HEAT INDEX




USA.gov is the U.S. government's official web portal to all federal, state and local government web resources and services.